When you browse on this site, cookies collect data to enhance your experience and personalize the content and advertising you see.
Visit our Privacy Policy to learn more. By continuing to use the site, you agree to this use of cookies and data.
  • En España
  • Lista de países
  • Para 7 días
  • Temperatura del agua
  • Mapa Satelital
  • El tiempo en el mapa
  • Informadores
  • user-avatar
    Iniciar sesión

    Tiempo cada hora Zamar

    Hoy, 19 Junio, Miércoles

    Tiempo Temperatura Precipitaciones Viento Presión Humedad
    00:00 +22°C° 0 mm 1 mps 583 mmHg 58%
    01:00 +20°C° 0 mm 0 mps 583 mmHg 58%
    02:00 +20°C° 0 mm 0 mps 582 mmHg 58%
    03:00 +19°C° 0 mm 0 mps 582 mmHg 61%
    04:00 +19°C° 0 mm 0 mps 582 mmHg 60%
    05:00 +19°C° 0 mm 0 mps 582 mmHg 59%
    06:00 +21°C° 0 mm 1 mps 582 mmHg 57%
    07:00 +22°C° 0 mm 1 mps 583 mmHg 50%
    08:00 +24°C° 0 mm 1 mps 584 mmHg 43%
    09:00 +26°C° 0 mm 1 mps 585 mmHg 36%
    10:00 +27°C° 0 mm 2 mps 585 mmHg 34%
    11:00 +28°C° 0 mm 2 mps 586 mmHg 31%
    12:00 +29°C° 0 mm 3 mps 586 mmHg 29%
    13:00 +28°C° 0.2 mm 3 mps 585 mmHg 32%
    14:00 +28°C° 0.2 mm 3 mps 585 mmHg 36%
    15:00 +28°C° 0.2 mm 4 mps 584 mmHg 39%
    16:00 +27°C° 1.3 mm 3 mps 584 mmHg 44%
    17:00 +25°C° 1.3 mm 3 mps 583 mmHg 50%
    18:00 +24°C° 1.3 mm 2 mps 583 mmHg 55%
    19:00 +24°C° 0.4 mm 2 mps 583 mmHg 55%
    20:00 +23°C° 0.4 mm 2 mps 583 mmHg 55%
    21:00 +23°C° 0.4 mm 1 mps 583 mmHg 55%
    22:00 +23°C° 0 mm 1 mps 583 mmHg 53%
    23:00 +23°C° 0 mm 1 mps 583 mmHg 51%

    Mañana, 20 Junio, Jueves

    Tiempo Temperatura Precipitaciones Viento Presión Humedad
    00:00 +24°C° 0 mm 1 mps 583 mmHg 49%
    01:00 +23°C° 0 mm 1 mps 583 mmHg 49%
    02:00 +23°C° 0 mm 1 mps 583 mmHg 49%
    03:00 +23°C° 0 mm 1 mps 583 mmHg 48%
    04:00 +23°C° 0 mm 1 mps 583 mmHg 50%
    05:00 +22°C° 0 mm 1 mps 583 mmHg 52%
    06:00 +22°C° 0 mm 1 mps 583 mmHg 53%
    07:00 +23°C° 0 mm 1 mps 584 mmHg 47%
    08:00 +25°C° 0 mm 1 mps 584 mmHg 42%
    09:00 +26°C° 0 mm 2 mps 585 mmHg 36%
    10:00 +27°C° 0 mm 2 mps 585 mmHg 34%
    11:00 +28°C° 0 mm 3 mps 585 mmHg 32%
    12:00 +28°C° 0 mm 3 mps 585 mmHg 30%
    13:00 +28°C° 0.2 mm 3 mps 585 mmHg 33%
    14:00 +28°C° 0.2 mm 4 mps 584 mmHg 36%
    15:00 +27°C° 0.2 mm 4 mps 583 mmHg 40%
    16:00 +27°C° 1 mm 4 mps 583 mmHg 43%
    17:00 +26°C° 1 mm 3 mps 583 mmHg 47%
    18:00 +25°C° 1 mm 3 mps 583 mmHg 50%
    19:00 +24°C° 0.2 mm 3 mps 583 mmHg 53%
    20:00 +24°C° 0.2 mm 2 mps 583 mmHg 55%
    21:00 +23°C° 0.2 mm 1 mps 584 mmHg 57%
    22:00 +23°C° 0 mm 1 mps 583 mmHg 59%
    23:00 +23°C° 0 mm 1 mps 583 mmHg 60%

    Pasado mañana, 21 Junio, Viernes

    Tiempo Temperatura Precipitaciones Viento Presión Humedad
    00:00 +22°C° 0 mm 1 mps 583 mmHg 62%
    01:00 +22°C° 0.1 mm 1 mps 582 mmHg 60%
    02:00 +21°C° 0.1 mm 2 mps 582 mmHg 58%
    03:00 +20°C° 0.1 mm 2 mps 581 mmHg 56%
    04:00 +20°C° 0 mm 2 mps 582 mmHg 54%
    05:00 +21°C° 0 mm 1 mps 582 mmHg 53%
    06:00 +21°C° 0 mm 1 mps 582 mmHg 51%
    07:00 +23°C° 0 mm 1 mps 583 mmHg 44%
    08:00 +25°C° 0 mm 1 mps 584 mmHg 37%
    09:00 +26°C° 0 mm 1 mps 585 mmHg 29%
    10:00 +27°C° 0 mm 1 mps 585 mmHg 28%
    11:00 +28°C° 0 mm 2 mps 585 mmHg 27%
    12:00 +28°C° 0 mm 2 mps 585 mmHg 26%
    13:00 +27°C° 0.1 mm 2 mps 584 mmHg 29%
    14:00 +27°C° 0.1 mm 3 mps 584 mmHg 33%
    15:00 +26°C° 0.1 mm 3 mps 583 mmHg 36%
    16:00 +25°C° 0 mm 3 mps 583 mmHg 39%
    17:00 +25°C° 0 mm 2 mps 583 mmHg 42%
    18:00 +25°C° 0 mm 2 mps 583 mmHg 45%
    19:00 +24°C° 0 mm 1 mps 583 mmHg 47%
    20:00 +24°C° 0 mm 1 mps 583 mmHg 49%
    21:00 +22°C° 0 mm 0 mps 583 mmHg 51%
    22:00 +21°C° 0 mm 0 mps 583 mmHg 52%
    23:00 +23°C° 0 mm 1 mps 583 mmHg 54%

    22 Junio, Sábado

    Tiempo Temperatura Precipitaciones Viento Presión Humedad
    00:00 +23°C° 0 mm 1 mps 582 mmHg 55%
    01:00 +22°C° 0 mm 1 mps 582 mmHg 54%
    02:00 +22°C° 0 mm 1 mps 582 mmHg 53%
    03:00 +22°C° 0 mm 1 mps 581 mmHg 52%
    04:00 +21°C° 0 mm 1 mps 581 mmHg 49%
    05:00 +21°C° 0 mm 1 mps 582 mmHg 47%
    06:00 +21°C° 0 mm 1 mps 582 mmHg 44%
    07:00 +23°C° 0 mm 2 mps 583 mmHg 36%
    08:00 +25°C° 0 mm 3 mps 584 mmHg 29%
    09:00 +27°C° 0 mm 3 mps 585 mmHg 21%
    10:00 +27°C° 0 mm 3 mps 586 mmHg 20%
    11:00 +28°C° 0 mm 4 mps 586 mmHg 18%
    12:00 +29°C° 0 mm 4 mps 586 mmHg 16%
    13:00 +29°C° 0 mm 4 mps 585 mmHg 21%
    14:00 +29°C° 0 mm 4 mps 585 mmHg 26%
    15:00 +28°C° 0 mm 4 mps 584 mmHg 30%
    16:00 +27°C° 0.4 mm 4 mps 584 mmHg 35%
    17:00 +27°C° 0.4 mm 3 mps 583 mmHg 39%
    18:00 +26°C° 0.4 mm 3 mps 583 mmHg 43%
    19:00 +25°C° 0.4 mm 2 mps 583 mmHg 49%
    20:00 +24°C° 0.4 mm 2 mps 583 mmHg 54%
    21:00 +23°C° 0.4 mm 1 mps 583 mmHg 59%
    22:00 +23°C° 0 mm 1 mps 583 mmHg 58%
    23:00 +23°C° 0 mm 1 mps 582 mmHg 57%

    23 Junio, Domingo

    Tiempo Temperatura Precipitaciones Viento Presión Humedad
    00:00 +22°C° 0 mm 1 mps 582 mmHg 56%
    01:00 +22°C° 0 mm 1 mps 582 mmHg 48%
    02:00 +21°C° 0 mm 2 mps 582 mmHg 40%
    03:00 +20°C° 0 mm 2 mps 581 mmHg 32%
    04:00 +20°C° 0 mm 2 mps 581 mmHg 30%
    05:00 +20°C° 0 mm 2 mps 581 mmHg 29%
    06:00 +20°C° 0 mm 2 mps 581 mmHg 27%
    07:00 +21°C° 0 mm 3 mps 583 mmHg 23%
    08:00 +23°C° 0 mm 4 mps 584 mmHg 19%
    09:00 +26°C° 0 mm 4 mps 585 mmHg 15%
    10:00 +27°C° 0 mm 5 mps 585 mmHg 14%
    11:00 +28°C° 0 mm 5 mps 585 mmHg 13%
    12:00 +29°C° 0 mm 5 mps 585 mmHg 13%
    13:00 +29°C° 0 mm 5 mps 585 mmHg 17%
    14:00 +29°C° 0 mm 4 mps 584 mmHg 21%
    15:00 +28°C° 0 mm 4 mps 584 mmHg 25%
    16:00 +27°C° 0.1 mm 4 mps 583 mmHg 33%
    17:00 +26°C° 0.1 mm 3 mps 583 mmHg 40%
    18:00 +25°C° 0.1 mm 3 mps 583 mmHg 48%
    19:00 +24°C° 0.3 mm 3 mps 583 mmHg 54%
    20:00 +23°C° 0.3 mm 2 mps 583 mmHg 59%
    21:00 +22°C° 0.3 mm 1 mps 583 mmHg 65%
    22:00 +22°C° 0 mm 1 mps 583 mmHg 66%
    23:00 +22°C° 0 mm 1 mps 582 mmHg 67%

    24 Junio, Lunes

    Tiempo Temperatura Precipitaciones Viento Presión Humedad
    00:00 +20°C° 0 mm 0 mps 582 mmHg 68%
    01:00 +19°C° 0 mm 0 mps 582 mmHg 68%
    02:00 +19°C° 0 mm 0 mps 581 mmHg 67%
    03:00 +18°C° 0 mm 0 mps 581 mmHg 67%
    04:00 +18°C° 0 mm 0 mps 581 mmHg 64%
    05:00 +18°C° 0 mm 0 mps 581 mmHg 62%
    06:00 +18°C° 0 mm 0 mps 582 mmHg 59%
    07:00 +22°C° 0 mm 1 mps 583 mmHg 49%
    08:00 +23°C° 0 mm 1 mps 584 mmHg 38%
    09:00 +25°C° 0 mm 2 mps 585 mmHg 27%
    10:00 +26°C° 0 mm 2 mps 585 mmHg 23%
    11:00 +27°C° 0 mm 3 mps 585 mmHg 20%
    12:00 +28°C° 0 mm 3 mps 585 mmHg 16%
    13:00 +28°C° 0 mm 3 mps 585 mmHg 19%
    14:00 +28°C° 0 mm 4 mps 585 mmHg 22%
    15:00 +29°C° 0 mm 4 mps 584 mmHg 25%
    16:00 +27°C° 0.3 mm 4 mps 584 mmHg 34%
    17:00 +25°C° 0.3 mm 3 mps 583 mmHg 42%
    18:00 +24°C° 0.3 mm 3 mps 582 mmHg 51%
    19:00 +23°C° 0.2 mm 2 mps 583 mmHg 53%
    20:00 +23°C° 0.2 mm 2 mps 583 mmHg 55%
    21:00 +22°C° 0.2 mm 1 mps 583 mmHg 57%
    22:00 +22°C° 0 mm 1 mps 583 mmHg 58%
    23:00 +22°C° 0 mm 1 mps 583 mmHg 59%
    Mostrar más